Waarnemingen

Advertentie
Mijn weer
Cap Bear, Frankrijk (7749): temperatuur & dauwpunt: 23.03.2017 01:00:00 - 29.03.2017 01:00:00 (CEST)Cap Bear, Frankrijk (7749): windsnelheid & windstoten: 23.03.2017 01:00:00 - 29.03.2017 01:00:00 (CEST)Cap Bear, Frankrijk (7749): windrichting: 23.03.2017 01:00:00 - 29.03.2017 01:00:00 (CEST)Cap Bear, Frankrijk (7749): luchtdruk: 23.03.2017 01:00:00 - 29.03.2017 01:00:00 (CEST)Cap Bear, Frankrijk (7749): zicht: 23.03.2017 01:00:00 - 29.03.2017 01:00:00 (CEST)Cap Bear, Frankrijk (7749): neerslag: 23.03.2017 01:00:00 - 29.03.2017 01:00:00 (CEST)
Datum & Tijd tt [°C] td [°C] ff [km/u] ff [kn] fx [km/u] fx [kn] dd ppp [hPa] vv [km] rr [mm]
29.03.2017 01:00:00 16,3 6,7 42 23 56 30 WNW 1025,7 - 0,0
29.03.2017 00:00:00 16,6 6,7 31 17 44 24 NW 1025,8 - 0,0
28.03.2017 23:00:00 16,6 7,8 26 14 40 21 WNW 1025,9 - 0,0
28.03.2017 22:00:00 16,8 7,7 6 3 19 10 WNW 1025,9 - 0,0
28.03.2017 21:00:00 16,9 7,8 3 2 5 3 NNW 1025,4 - 0,0
28.03.2017 20:00:00 17,4 7,4 5 3 9 5 ZW 1025,1 - 0,0
28.03.2017 19:00:00 16,5 10,8 0 0 16 8 N 1024,9 - 0,0
28.03.2017 18:00:00 13,9 12,1 15 8 25 13 Z 1025,0 - 0,0
28.03.2017 17:00:00 14,7 11,8 18 10 26 14 ZZO 1025,0 20 0,0
28.03.2017 16:00:00 14,5 11,1 15 8 19 10 ZZO 1025,6 - 0,0
28.03.2017 15:00:00 14,7 11,7 8 5 15 8 ZZO 1026,2 - 0,0
28.03.2017 14:00:00 14,3 11,1 8 5 13 7 ONO 1026,8 20 0,0
28.03.2017 13:00:00 13,9 12,5 6 3 12 7 N 1026,9 - 0,0
28.03.2017 12:00:00 13,7 11,7 10 5 21 11 N 1027,0 - 0,0
28.03.2017 11:00:00 13,2 11,1 19 11 29 16 NNW 1026,8 20 0,0
28.03.2017 10:00:00 12,2 10,6 14 8 28 15 NW 1026,2 - 0,0
28.03.2017 09:00:00 11,3 9,7 16 9 35 19 NW 1025,9 - 0,0
28.03.2017 08:00:00 10,1 9,0 20 11 29 16 NW 1025,3 20 0,0
28.03.2017 07:00:00 10,1 9,2 27 14 29 16 WNW 1024,5 - 0,0
28.03.2017 06:00:00 10,1 8,5 5 3 12 6 NW 1024,3 - 0,0
28.03.2017 05:00:00 10,3 8,9 12 7 15 8 NW 1024,0 20 0,0
28.03.2017 04:00:00 11,2 9,9 2 1 20 11 ZZW 1023,9 - 0,0
28.03.2017 03:00:00 10,8 10,0 8 4 37 20 W 1023,8 - 0,0
28.03.2017 02:00:00 12,3 11,2 29 16 34 18 ZZO 1023,6 - 0,0
28.03.2017 01:00:00 13,0 10,0 19 10 34 19 ZZO 1023,7 - 0,0
28.03.2017 00:00:00 13,1 10,1 25 13 34 18 Z 1023,7 - 0,0
27.03.2017 23:00:00 13,5 7,9 28 15 46 25 ZZW 1023,2 - 0,0
27.03.2017 22:00:00 12,6 12,3 34 18 41 22 Z 1022,8 - 0,0
27.03.2017 21:00:00 12,8 12,8 32 17 36 19 ZZO 1022,9 - 0,0
27.03.2017 20:00:00 12,8 12,8 31 17 34 18 ZZO 1022,6 20 0,0
27.03.2017 19:00:00 13,2 13,0 29 16 33 18 ZZO 1022,2 - 0,0
27.03.2017 18:00:00 13,3 13,1 23 12 34 18 ZZO 1021,9 - 0,0
27.03.2017 17:00:00 13,3 12,8 32 17 41 22 ZZO 1021,1 20 0,0
27.03.2017 16:00:00 14,0 12,4 39 21 58 31 ZZO 1020,4 - 0,0
27.03.2017 15:00:00 14,0 12,2 53 29 61 33 ZZO 1020,3 - 0,0
27.03.2017 14:00:00 14,2 12,8 47 26 53 29 ZZO 1020,9 20 0,0
27.03.2017 13:00:00 15,2 11,6 41 22 55 30 ZZO 1021,4 - 0,0
27.03.2017 12:00:00 14,5 11,3 44 24 55 30 ZZO 1020,9 - 0,0
27.03.2017 11:00:00 13,9 12,1 50 27 55 30 ZZO 1021,0 20 0,0
27.03.2017 10:00:00 13,7 12,4 35 19 43 23 ZZO 1020,7 - 0,0
27.03.2017 09:00:00 12,6 12,3 41 22 48 26 Z 1020,2 - 0,0
27.03.2017 08:00:00 11,9 11,6 36 19 46 25 Z 1019,3 20 0,0
27.03.2017 07:00:00 11,7 11,7 36 19 43 23 ZZO 1018,4 - 0,0
27.03.2017 06:00:00 11,2 11,2 23 13 36 20 ZO 1018,0 - 0,0
27.03.2017 05:00:00 9,5 9,5 15 8 19 10 NNW 1018,0 20 0,0
27.03.2017 04:00:00 10,0 10,0 5 3 11 6 NO 1018,1 - 0,0
27.03.2017 03:00:00 10,4 10,1 3 2 15 8 O 1018,3 - 0,0
27.03.2017 02:00:00 10,9 10,0 8 5 16 9 ZZW 1018,9 - 0,0
27.03.2017 01:00:00 11,3 10,2 9 5 10 5 ZZW 1019,3 - 0,0
27.03.2017 00:00:00 11,4 10,0 4 2 6 4 NW 1019,4 - 0,0
26.03.2017 23:00:00 12,1 10,8 5 3 9 5 O 1019,2 - 0,0
26.03.2017 22:00:00 11,8 10,0 5 3 21 12 ZO 1018,6 - 0,0
26.03.2017 21:00:00 11,7 10,8 19 11 22 12 NW 1018,2 - 0,0
26.03.2017 20:00:00 12,2 11,3 17 9 24 13 NNW 1017,8 20 0,0
26.03.2017 19:00:00 12,8 10,9 18 10 22 12 NW 1017,5 - 0,0
26.03.2017 18:00:00 13,5 11,5 16 9 18 10 N 1017,6 - 0,0
26.03.2017 17:00:00 14,6 9,4 12 7 16 8 NO 1018,1 22 0,0
26.03.2017 16:00:00 14,1 10,5 9 5 13 7 NNO 1017,9 - 0,0
26.03.2017 15:00:00 13,9 10,1 6 3 17 9 NO 1018,2 - 0,0
26.03.2017 14:00:00 12,3 8,4 12 7 21 11 NNW 1019,1 22 0,0
26.03.2017 13:00:00 11,7 9,1 18 10 22 12 NNW 1019,4 - 0,0
26.03.2017 12:00:00 11,3 7,2 16 8 21 11 NNW 1019,4 - 0,0
26.03.2017 11:00:00 10,8 6,0 13 7 16 9 N 1019,3 22 0,0
26.03.2017 10:00:00 10,7 6,6 10 6 22 12 NNW 1018,8 - 0,0
26.03.2017 09:00:00 10,4 5,4 8 4 18 10 NNW 1018,2 - 0,0
26.03.2017 08:00:00 9,9 2,3 4 2 14 8 NW 1017,7 22 0,0
26.03.2017 07:00:00 9,0 2,3 8 5 27 15 WNW 1017,2 - 0,0
26.03.2017 06:00:00 8,1 3,4 25 13 30 16 NW 1016,7 - 0,0
26.03.2017 05:00:00 11,2 5,9 13 7 59 32 NW 1016,4 22 0,0
26.03.2017 04:00:00 10,8 3,3 25 14 63 34 ZZW 1016,8 - 0,0
26.03.2017 03:00:00 10,8 3,1 29 16 60 32 ZW 1016,9 - 0,0
26.03.2017 02:00:00 10,5 3,3 20 11 48 26 ZZW 1017,1 - 0,0
26.03.2017 01:00:00 10,4 3,7 31 17 59 32 ZZW 1017,0 - 0,0
26.03.2017 00:00:00 10,8 3,3 35 19 60 32 ZZW 1016,1 - 0,0
25.03.2017 23:00:00 10,8 3,8 37 20 55 30 Z 1016,2 - 0,0
25.03.2017 22:00:00 11,8 4,7 41 22 54 29 Z 1016,0 - 0,0
25.03.2017 21:00:00 11,8 4,3 37 20 46 25 Z 1015,4 - 0,0
25.03.2017 20:00:00 12,2 4,4 22 12 45 25 Z 1015,6 25 0,0
25.03.2017 19:00:00 12,6 4,0 20 11 54 29 ZZW 1015,2 - 0,0
25.03.2017 18:00:00 14,3 4,8 36 20 57 31 Z 1014,3 - 0,0
25.03.2017 17:00:00 15,1 7,4 37 20 72 39 Z 1013,8 22 0,0
25.03.2017 16:00:00 14,9 5,4 47 26 68 37 Z 1014,0 - 0,0
25.03.2017 15:00:00 15,0 6,5 52 28 84 45 Z 1013,2 - 0,0
25.03.2017 14:00:00 13,2 5,6 48 26 93 50 Z 1013,3 20 0,0
25.03.2017 13:00:00 12,9 4,8 56 30 94 51 Z 1012,4 - 0,0
25.03.2017 12:00:00 11,7 6,6 63 34 112 61 Z 1012,2 - 0,0
25.03.2017 11:00:00 10,0 5,0 71 38 108 58 ZZW 1009,4 20 0,2
25.03.2017 10:00:00 8,5 6,8 43 23 69 37 Z 1009,6 - 0,0
25.03.2017 09:00:00 10,2 8,6 54 29 64 35 ZZO 1008,2 - 0,0
25.03.2017 08:00:00 10,8 9,4 40 22 66 35 Z 1008,2 - 0,0
25.03.2017 07:00:00 11,9 11,9 49 26 87 47 ZZO 1006,8 - 4,0
25.03.2017 06:00:00 11,6 11,6 30 16 67 36 OZO 1008,9 - 3,2
25.03.2017 05:00:00 12,5 12,0 53 29 120 65 ZO 1009,6 7 2,1
25.03.2017 04:00:00 12,9 12,9 27 15 80 43 ONO 1010,9 - 2,0
25.03.2017 03:00:00 9,1 9,1 32 17 57 31 NW 1011,8 - 0,0
25.03.2017 02:00:00 8,0 8,0 46 25 56 31 NW 1013,8 - 0,0
25.03.2017 01:00:00 8,0 8,0 39 21 66 36 WNW 1014,2 - 0,0
25.03.2017 00:00:00 8,2 8,2 43 23 63 34 NW 1015,2 - 0,0
24.03.2017 23:00:00 8,1 8,0 45 24 69 37 NW 1016,0 - 0,2
24.03.2017 22:00:00 7,7 7,7 51 28 72 39 NW 1015,3 - 0,0
24.03.2017 21:00:00 8,0 7,7 49 26 68 37 NW 1014,8 - 2,3
24.03.2017 20:00:00 7,9 7,6 51 28 69 37 NW 1014,6 8 1,0
24.03.2017 19:00:00 8,2 8,1 50 27 74 40 NW 1014,2 - 0,2
24.03.2017 18:00:00 8,3 8,3 52 28 73 40 NW 1013,9 - 2,6
24.03.2017 17:00:00 8,8 8,0 33 18 53 29 NW 1014,8 - 0,8
24.03.2017 16:00:00 10,6 9,0 36 19 42 23 NNW 1015,0 - 0,0
24.03.2017 15:00:00 10,9 8,1 13 7 19 10 N 1015,6 - 0,2
24.03.2017 14:00:00 11,8 8,1 2 1 16 9 NO 1016,2 18 0,4
24.03.2017 13:00:00 11,8 7,7 9 5 13 7 Z 1016,2 - 0,2
24.03.2017 12:00:00 11,4 7,7 11 6 14 8 ZW 1016,4 - 0,6
24.03.2017 11:00:00 11,6 6,5 10 6 16 9 ZZO 1016,3 20 0,0
24.03.2017 10:00:00 11,6 6,5 12 7 19 10 Z 1015,9 - 0,0
24.03.2017 09:00:00 11,1 5,8 13 7 25 14 ZZO 1015,4 - 0,0
24.03.2017 08:00:00 10,8 6,2 20 11 24 13 Z 1015,0 20 0,0
24.03.2017 07:00:00 11,5 5,6 8 5 22 12 ZZO 1014,0 - 0,0
24.03.2017 06:00:00 11,0 4,9 14 8 27 14 ZZW 1014,3 - 0,0
24.03.2017 05:00:00 10,7 5,4 21 11 28 15 ZZW 1013,6 20 0,0
24.03.2017 04:00:00 11,1 5,4 14 8 23 12 ZZW 1014,1 - 0,0
24.03.2017 03:00:00 11,3 5,4 17 9 22 12 ZZW 1014,2 - 0,0
24.03.2017 02:00:00 11,5 5,1 2 1 37 20 ZZW 1014,1 - 0,0
24.03.2017 01:00:00 12,1 5,3 25 14 42 23 Z 1013,7 - 0,0
24.03.2017 00:00:00 11,7 6,2 26 14 39 21 Z 1013,5 - 0,0
23.03.2017 23:00:00 11,0 7,7 10 6 14 8 Z 1013,6 - 0,0
23.03.2017 22:00:00 11,4 7,3 4 2 6 3 ZZW 1013,0 - 0,0
23.03.2017 21:00:00 11,3 7,0 0 0 12 6 N 1012,1 - 0,0
23.03.2017 20:00:00 11,3 7,6 7 4 25 14 NO 1011,3 20 0,0
23.03.2017 19:00:00 11,7 8,2 16 9 25 14 NNO 1010,5 - 0,0
23.03.2017 18:00:00 11,7 8,2 23 12 30 16 NNO 1009,6 - 0,0
23.03.2017 17:00:00 12,2 9,6 21 11 32 18 N 1009,1 12 0,0
23.03.2017 16:00:00 12,6 10,5 26 14 41 22 N 1008,6 - 0,6
23.03.2017 15:00:00 11,7 9,4 35 19 48 26 N 1008,5 - 0,0
23.03.2017 14:00:00 12,3 11,2 26 14 37 20 N 1008,5 - 0,0
23.03.2017 13:00:00 13,3 11,7 22 12 30 16 NNW 1008,2 - 0,0
23.03.2017 12:00:00 12,3 10,4 16 9 25 13 NW 1008,5 - 0,0
23.03.2017 11:00:00 10,9 7,9 5 3 21 12 NNW 1008,4 20 0,0
23.03.2017 10:00:00 10,7 7,8 4 2 14 8 WNW 1008,2 - 0,0
23.03.2017 09:00:00 10,2 7,8 3 2 35 19 N 1007,7 - 0,0
23.03.2017 08:00:00 8,8 6,2 28 15 36 19 WNW 1007,2 18 0,0
23.03.2017 07:00:00 13,5 11,9 30 16 41 22 Z 1006,5 - 0,0
23.03.2017 06:00:00 13,4 12,3 26 14 37 20 ZZO 1006,4 - 0,0
23.03.2017 05:00:00 13,7 11,9 28 15 37 20 ZZO 1006,8 20 0,0
23.03.2017 04:00:00 13,9 11,6 29 16 39 21 ZZO 1007,2 - 0,0
23.03.2017 03:00:00 13,4 10,7 8 4 34 18 Z 1008,3 - 0,0
23.03.2017 02:00:00 13,0 10,2 19 10 48 26 Z 1008,6 - 0,0
23.03.2017 01:00:00 - - - - - - - - - -

tt = temperatuur
td = dauwpunt
ff = windsnelheid
fx = windstoten
dd = windrichting
ppp = luchtdruk
vv = zicht
rr = neerslag

Weerstations in de omgeving